loading
|

SCOUT A DEB, 2989

Orbit data source: Space-Track

SCOUT A DEB, 2989 is space debris in LEO originally from a launch on Fri, 28 Jan 1966 UTC launched from the Air Force Western Test Range (AFWTR). Debris objects in space refer to the collection of defunct objects orbiting the Earth. Examples of debris include non-operational satellites, rocket bodies, and fragments generated from explosions, collisions, or faulty payload assembly.

Loading next visibility...
Loading greatness...
SCOUT A DEB details
Identifier
2989, 1966-005F
Orbit
LEO
Last TLE update1 day ago
Origin
Flag of USUSN NAVAIR (US)
ManufacturerUnknown
MissionSpacecraft
Bus & MotorUnknown bus, Unknown motor
MassUnknown
Launch date (UTC)
1966-01-28 (59 years ago)
Launch vehicleUnknown
Launch site
Air Force Western Test Range (AFWTR)
Object type
Payload
Rocket body
Debris
Shape & HBRUnknown
Radar Cross SectionSmall (<0.1 m²)

Expand to show TLE details & history

TLE from 1 day ago
0 SCOUT A DEB
1 02989U 66005F   24280.55648122  .00002107  00000-0  13618-2 0  9995
2 02989  89.6749 306.9049 0111632  39.8167 321.1136 13.99537108910432
Epoch: 2024-10-06T13:21Z
Definitive object data (Epoch: 2024-10-06T13:21:19.977Z)
Latitude0.00004°
Longitude90.87492°
Altitude835.57 km
Speed7.467 km/s
True Right ascension20h 27m 37s
True Declination0° 00' 00"
Sunlit
Object was in daylight at TLE epoch
Predictive object data (real-time)
Latitude-48.43344°
Longitude-88.80276°
Altitude993.604 km
Speed7.313 km/s
Apparent Right ascension04h 14m 48s
Apparent Declination-65° 27' 14"
Sunlit
Object is in daylight
Predictive observer data (real-time)
Local Sidereal Time12:00:41
Azimuth212.718° SW
Elevation-46.526°
Doppler factor1
Orbital elements
Apogee973.538 km
Perigee811.214 km
Semi-major axis7,270.513 km
Eccentricity0.0111632
Inclination89.6749°
RAAN306.9049°
Arg. of periapsis39.8167°
True anomaly320.30175°
Mean anomaly321.1136°
Eccentric anomaly320.70856°
Mean motion3.50103 °/min
BSTAR0.0013618
Period102.83 mins
No data available

SCOUT A DEB Visibility forecast

Observer location: 39.9160978°, -105.1181434

SCOUT A DEB is not visible in the next 10 days
Span
Click to sort rows by Start time (UTC) header in descending order
Start Az.
Max El. time (UTC)
Max El. Az.
Max El.
End time (UTC)
End Az.